Regional Weather Roundup
Issued by NWS

Home | Current Version | Previous Version | Text Only | Print | Product List | Glossary On
Versions: 1 2 3 4 5 6 7 8 9 10 11 12 13 14 15 16 17 18 19 20 21 22 23 24 25 26 27 28 29 30 31 32 33 34 35 36 37 38 39 40 41 42 43 44 45 46 47 48 49 50
000
ASUS43 KLSX 281759
RWRMO

WEATHER SUMMARY FOR MISSOURI
NATIONAL WEATHER SERVICE SPRINGFIELD MO
100 PM CDT THU AUG 28 2014

NOTE: "FAIR" INDICATES FEW OR NO CLOUDS BELOW 12,000 FEET WITH NO
       SIGNIFICANT WEATHER AND/OR OBSTRUCTIONS TO VISIBILITY.
       CURRENT SKY AND/OR WEATHER CONDITIONS ARE NOT AVAILABLE FOR
       CHILLICOTHE AND FARMINGTON.

MOZ001>031-035>038-043-044-053-054-281900-
...NORTHERN AND WESTERN MISSOURI...

CITY           SKY/WX    TMP DP  RH WIND       PRES   REMARKS
KANSAS CTY INT MOSUNNY   88  70  55 SW15      29.96F HX  93
6HR MIN TEMP:  74; 6HR MAX TEMP:  90;

KANSAS C DTWN  MOSUNNY   88  70  55 S6        29.95F HX  93
6HR MIN TEMP:  77; 6HR MAX TEMP:  90;

LEE`S SUMMIT   SUNNY     87  71  58 SW8       29.98S HX  93
6HR MIN TEMP:  74; 6HR MAX TEMP:  88;

ST JOSEPH      MOSUNNY   85  73  67 SE6       29.94F HX  91
6HR MIN TEMP:  73; 6HR MAX TEMP:  85;

KIRKSVILLE     PTSUNNY   82  73  74 SW5       30.00F
6HR MIN TEMP:  71; 6HR MAX TEMP:  83;


$$
MOZ066>068-077>081-088>096-101>105-281900-
...SOUTHWEST MISSOURI...

CITY           SKY/WX    TMP DP  RH WIND       PRES   REMARKS
SPRINGFIELD    MOSUNNY   89  62  40 SE10G20   30.01F
6HR MIN TEMP:  73; 6HR MAX TEMP:  90;

JOPLIN         SUNNY     89  64  43 SE7       29.99F HX  90
6HR MIN TEMP:  73; 6HR MAX TEMP:  91;


$$
MOZ032>034-039>042-045>050-055>058-069>072-281900-
...CENTRAL MISSOURI...

CITY           SKY/WX    TMP DP  RH WIND       PRES   REMARKS
COLUMBIA         N/A     91  69  48 MISG      30.00F HX  96
6HR MIN TEMP:  69; 6HR MAX TEMP:  92;

JEFFERSON CITY SUNNY     90  67  46 S9        29.98F HX  93
6HR MIN TEMP:  69; 6HR MAX TEMP:  90;

ROLLA          MOSUNNY   91  66  43 S14       30.01F HX  93
6HR MIN TEMP:  70; 6HR MAX TEMP:  91;

SEDALIA        MOSUNNY   89  70  53 S12       30.00F HX  94
6HR MIN TEMP:  71; 6HR MAX TEMP:  90;

OSAGE BEACH    PTSUNNY   90  66  45 SW7       30.00F HX  92

$$
MOZ051-052-059>065-281900-
...EAST CENTRAL MISSOURI...

CITY           SKY/WX    TMP DP  RH WIND       PRES   REMARKS
ST LOUIS INTL  NOT AVBL
SPIRIT OF STL  MOSUNNY   88  73  61 VRB5      30.00F HX  95
6HR MIN TEMP:  70; 6HR MAX TEMP:  88;

ST CHARLES     SUNNY     88  72  58 S7        30.00F HX  94
6HR MIN TEMP:  70; 6HR MAX TEMP:  88;


$$
MOZ072>076-082>087-097>100-106>115-281900-
...SOUTH CENTRAL AND SOUTHEAST MISSOURI...

CITY           SKY/WX    TMP DP  RH WIND       PRES   REMARKS
CAPE GIRARDEAU MOSUNNY   88  73  61 CALM      30.00F HX  95
6HR MIN TEMP:  72; 6HR MAX TEMP:  89;

FARMINGTON     SUNNY     90  70  51 S9        30.05F HX  95
6HR MIN TEMP:  68; 6HR MAX TEMP:  90;

POPLAR BLUFF   SUNNY     91  68  46 SW7       30.01S HX  95
6HR MIN TEMP:  72; 6HR MAX TEMP:  91;

WEST PLAINS    SUNNY     88  64  44 S12G17    30.05F
6HR MIN TEMP:  67; 6HR MAX TEMP:  88;


$$


USA.gov is the U.S. government's official web portal to all federal, state and local government web resources and services.